Location: ČR
(50.0000°N, 15.0000°E)
Time: 07:23:47
(UTC+02:00)

A-11 Canister half - Pass Details

Date: 22 March 2026
Orbit: 1514 x 1685 km, 47.2° (Epoch: 18 April)

Event Time Altitude Azimuth Distance (km) Brightness Sun altitude
Rises 13:18:53 0° 242° (WSW) 4,807 12.2 38.4°
Reaches altitude 10° 13:21:58 10° 240° (WSW) 3,845 11.9 38.2°
Maximum altitude 13:31:42 66° 161° (SSE) 1,782 10.4 37.5°
Drops below altitude 10° 13:41:42 10° 82° (E) 3,948 10.9 36.8°
Sets 13:44:55 0° 80° (E) 4,942 11.3 36.5°
